This is the latest recevied weather packets stored in our database for station/object BARLOW-WX. If no packets are shown the sender has not sent any weather packets the latest 10 day(s).
| Time | Temp. | Humidity | Pressure | Rain* | Wind** | Luminosity | Snow |
|---|---|---|---|---|---|---|---|
| 1777565777 | 8.33° C | 60% | 988.1 hPa | 0 mm | - | - | - |
| 1777564908 | 8.33° C | 60% | 988.1 hPa | 0 mm | - | - | - |
| 1777563977 | 8.33° C | 70% | 987.8 hPa | 0 mm | - | - | - |
| 1777563095 | 8.33° C | 70% | 988.4 hPa | 0 mm | - | - | - |
| 1777562178 | 7.22° C | 70% | 988.4 hPa | 0 mm | - | - | - |
| 1777561305 | 7.22° C | 70% | 988.4 hPa | 0 mm | - | - | - |
| 1777560380 | 7.22° C | 78% | 987.5 hPa | 0 mm | - | - | - |
| 1777559499 | 6.67° C | 78% | 988.9 hPa | 0 mm | - | - | - |
| 1777558577 | 6.67° C | 78% | 988.9 hPa | 0 mm | - | - | - |
| 1777557716 | 6.67° C | 78% | 988.9 hPa | 0 mm | - | - | - |
| 1777556778 | 6.11° C | 84% | 988.3 hPa | 0 mm | - | - | - |
| 1777555897 | 6.11° C | 84% | 988.3 hPa | 0 mm | - | - | - |
| 1777554977 | 5.56° C | 84% | 988.4 hPa | 0 mm | - | - | - |
| 1777554111 | 5.56° C | 84% | 988.4 hPa | 0 mm | - | - | - |
| 1777553178 | 5° C | 86% | 987 hPa | 0 mm | - | - | - |
| 1777552291 | 4.44° C | 88% | 988 hPa | 0 mm | - | - | - |
| 1777551379 | 4.44° C | 88% | 988 hPa | 0 mm | - | - | - |
| 1777550517 | 3.89° C | 88% | 988 hPa | 0 mm | - | - | - |
| 1777549578 | 3.33° C | 90% | 986.9 hPa | 0 mm | - | - | - |
| 1777548697 | 3.33° C | 92% | 987.7 hPa | 0 mm | - | - | - |
| 1777547776 | 2.78° C | 92% | 987.7 hPa | 0 mm | - | - | - |
| 1777546906 | 2.78° C | 92% | 987.7 hPa | 0 mm | - | - | - |
| 1777545976 | 2.78° C | 93% | 987.3 hPa | 0 mm | - | - | - |
| 1777545095 | 2.22° C | 93% | 988.1 hPa | 0 mm | - | - | - |
| 1777544177 | 2.78° C | 93% | 988.1 hPa | 0 mm | - | - | - |
* Rain latest hour (hover to see other rain measurements)
** Current wind speed in m/s (hover to see current wind gust speed)